Weather Roundup
Issued by NWS

Home | Current Version | Previous Version | Graphics & Text | Print | Product List | Glossary Off
Versions: 1 2 3 4 5 6 7 8 9 10 11 12 13 14 15 16 17 18 19 20 21 22 23 24 25 26 27 28 29 30 31 32 33 34 35 36 37 38 39 40 41 42 43 44 45 46 47 48 49 50

000
NZUS93 KARX 220210
HRRWXR

CURRENT HOURLY OBSERVATIONS ACROSS
MUCH OF THE UPPER MISSISSIPPI VALLEY
NATIONAL WEATHER SERVICE LA CROSSE WI
900 PM CDT SUN SEP 21 2014


...SOUTHEAST MINNESOTA...


CITY           SKY/WX    TMP DP  RH WIND       PRES   REMARKS
ROCHESTER      CLEAR     52  46  80 NW8       30.21R
ROCHESTER/MAYO FAIR      56  46  70 W5        30.20R
WINONA         CLEAR     54  50  87 NW5       30.19R
AUSTIN         CLEAR     54  48  82 NW5       30.21R
ALBERT LEA     CLEAR     55  48  76 CALM      30.22R
DODGE CENTER   CLEAR     54  48  82 N3        30.21R
PRESTON        CLEAR     53  49  89 N3        30.20R
OWATONNA       CLEAR     52  48  87 CALM      30.22R
FARIBAULT      CLEAR     55  46  71 CALM      30.21S
$$

...ELSEWHERE IN MINNESOTA...


CITY           SKY/WX    TMP DP  RH WIND       PRES   REMARKS
MINNEAPOLIS    CLEAR     60  45  57 N3        30.20R
INTNL FALLS    MOCLDY    52  48  86 W5        30.16S
DULUTH         CLEAR     51  43  74 CALM      30.18R
RED WING       CLEAR     52  48  87 CALM      30.19R
REDWOOD FALLS  CLEAR     56  50  80 NW3       30.23R
MANKATO        CLEAR     55  46  71 NW6       30.22R
WORTHINGTON    CLEAR     52  45  76 N3        30.26R
FAIRMONT       CLEAR     54  46  76 NW3       30.24R
$$

...SOUTHWEST WISCONSIN...


CITY           SKY/WX    TMP DP  RH WIND       PRES   REMARKS
LA CROSSE      CLEAR     55  46  71 N6        30.17R
PRAIRIE DU CHI CLEAR     52  48  88 CALM      30.16R
BOSCOBEL       CLEAR     51  48  89 CALM      30.16R
LONE ROCK      CLEAR     55  45  68 N6        30.16R
PLATTEVILLE    CLEAR     54  47  78 NW6       30.16R
FORT MC COY    CLEAR     46  45  95 CALM      30.18R
CAMP DOUGLAS   CLEAR     44  44  99 CALM      30.17R
VIROQUA        FAIR      50  45  81 N5        30.17R
WIS DELLS      CLEAR     53  43  69 CALM      30.16R
$$

...ELSEWHERE IN WISCONSIN...


CITY           SKY/WX    TMP DP  RH WIND       PRES   REMARKS
MILWAUKEE      PTCLDY    53  41  63 N8        30.12R
MADISON        CLEAR     52  45  77 CALM      30.14R
GREEN BAY      CLEAR     47  41  80 N7        30.15R
EAU CLAIRE     CLEAR     51  45  79 CALM      30.17R
BLACK RVR FLS  FAIR      44  44 100 CALM      30.17R
MEDFORD        CLEAR     41  40  96 CALM      30.17R
WAUSAU         CLEAR     47  38  71 NW5       30.16R
WIS RAPIDS     CLEAR     50  41  71 N8        30.18R
MARSHFIELD     CLEAR     50  39  66 NE7       30.17R
RICE LAKE      CLEAR     49  46  90 CALM      30.19R
$$

...NORTHEAST IOWA...


CITY           SKY/WX    TMP DP  RH WIND       PRES   REMARKS
WATERLOO       CLEAR     52  47  83 CALM      30.19R
DUBUQUE        CLEAR     52  47  83 NW9       30.16R
DECORAH        CLEAR     52  46  82 NW6       30.18R
MASON CITY     CLEAR     52  48  86 NW8       30.24R
CHARLES CITY   CLEAR     52  48  87 NW6       30.21R
OELWEIN        CLEAR     50  46  87 NW7       30.20R
$$

...ELSEWHERE IN IOWA...


CITY           SKY/WX    TMP DP  RH WIND       PRES   REMARKS
DES MOINES     CLEAR     61  49  64 N6        30.21R
IOWA CITY        N/A     56  49  77 NW5       30.18R
FORT DODGE     CLEAR     55  46  71 N3        30.24R
MARSHALLTOWN   CLEAR     55  48  77 N9        30.19R
CEDAR RAPIDS   CLEAR     52  49  89 NW7       30.16R
$$

...NORTHERN ILLINOIS...


CITY           SKY/WX    TMP DP  RH WIND       PRES   REMARKS
CHICAGO-OHARE  PTCLDY    58  48  69 N6        30.12R
DUPAGE         PTCLDY    52  45  77 N6        30.11R
CHICAGO-MIDWAY PTCLDY    58  46  64 N12       30.11R
MOLINE         CLEAR     61  48  62 N7        30.15R
ROCKFORD       PTCLDY    53  46  77 CALM      30.15R
STERLING       CLEAR     55  46  71 N6        30.14R
PEORIA         CLEAR     58  51  78 NW5       30.14R
$$

NOTE: "FAIR" INDICATES FEW OR NO CLOUDS BELOW 12,000 FEET WITH NO
SIGNIFICANT WEATHER AND/OR OBSTRUCTIONS TO VISIBILITY. WIND
SPEEDS ARE IN MILES-PER-HOUR.



USA.gov is the U.S. government's official web portal to all federal, state and local government web resources and services.